GFSFLT2_700_temp_213.txt.gz
Temp
11 11 11 11 11 11 10 10 9 8 8 8 7 7 7 7 6 7 7 7 7 7 7 7 7 7 7 7 7 6 6 5
11 10 10 10 10 10 10 10 9 9 8 7 7 7 7 6 7 6 6 6 6 6 6 7 7 7 7 7 6 6 6 5
11 10 10 10 10 10 10 10 9 9 8 8 7 7 6 6 6 6 6 6 6 6 6 5 6 6 6 6 6 6 5 5
10 10 10 10 10 9 10 10 10 9 9 8 7 7 6 6 6 6 6 6 6 5 6 6 5 5 6 5 5 5 5 5
9 10 10 10 9 9 9 9 9 9 9 8 7 6 6 6 5 5 5 6 6 6 5 5 5 5 5 5 5 5 5 4
10 10 9 9 9 9 9 9 9 9 9 8 7 7 6 6 6 5 5 5 5 5 5 5 5 5 5 4 4 4 5 4
9 9 9 9 9 9 9 8 8 8 8 8 7 7 7 6 6 5 5 5 5 5 5 5 5 4 4 4 4 4 4 4
9 9 9 8 8 8 8 8 7 7 7 8 8 7 6 6 6 5 4 4 4 4 4 4 4 4 4 4 4 4 3 4
9 9 9 8 8 7 7 7 7 7 6 6 6 7 6 6 5 5 4 4 4 4 4 4 4 4 3 3 3 3 3 3
9 9 9 8 8 7 7 6 6 6 6 5 5 5 6 5 5 5 4 4 4 4 4 4 4 3 3 3 3 3 3 2
8 8 8 8 7 7 7 6 6 6 5 5 4 4 4 4 4 4 4 4 3 3 4 3 3 3 3 3 2 1 1 1
8 8 8 8 8 7 6 5 5 5 6 6 5 4 4 4 2 3 3 2 3 3 3 3 2 2 2 1 1 0 1 1
8 8 7 7 7 6 6 5 5 5 5 5 4 4 3 3 3 2 2 1 2 3 2 3 2 2 1 1 1 1 0 -1
8 8 7 7 6 5 5 4 4 4 4 4 5 4 4 4 3 3 1 2 3 2 3 3 3 2 1 0 0 1 0 0
7 7 7 6 6 5 4 4 3 3 3 3 3 4 5 4 3 2 0 2 2 1 1 2 2 2 2 1 1 1 1 1
6 6 6 6 4 4 4 3 3 3 3 3 3 4 4 3 2 2 2 1 1 1 1 2 2 2 2 1 1 1 1 1
3 3 2 3 3 3 2 2 2 3 2 2 3 3 2 1 2 1 1 0 -0 0 0 1 1 1 1 2 1 1 0 0
0 1 1 0 2 2 2 2 2 2 1 2 1 1 2 1 1 1 0 1 0 -0 0 1 1 1 1 1 1 1 1 1
-0 -0 -0 -0 -1 -0 -0 1 1 -0 -0 0 1 0 2 0 -0 1 0 -0 -0 0 -0 -0 0 1 1 1 1 1 0 0
-2 -1 0 -0 -1 -1 -1 -2 -1 -1 -1 -2 -1 -1 -1 -1 -1 0 0 -0 -0 -1 0 -1 -1 1 1 0 0 0 -0 0

GFSFLT2_700_temp_216.txt.gz
Temp
11 11 10 10 10 10 10 10 10 9 8 8 8 8 7 7 6 6 6 6 6 7 7 7 7 7 6 7 6 6 6 6
11 10 10 10 10 10 10 10 10 10 9 8 8 7 7 6 6 6 5 6 6 6 6 7 7 6 6 6 6 6 6 6
11 10 10 10 10 10 10 10 10 10 9 9 8 7 7 6 6 6 5 6 6 6 6 6 6 6 6 6 5 5 5 5
10 10 10 10 10 9 9 9 9 9 9 9 8 8 7 6 6 6 6 6 6 6 6 5 6 6 6 6 5 5 5 5
10 10 10 10 9 9 9 9 9 9 9 9 8 7 7 6 6 6 5 5 6 5 6 5 6 6 6 5 5 5 5 4
10 10 10 9 9 9 9 9 9 9 8 8 8 8 7 6 6 6 5 5 5 5 5 5 5 5 5 5 5 4 4 4
10 9 9 9 9 9 9 9 8 8 8 8 7 7 6 6 6 5 5 5 5 5 5 5 5 5 5 5 5 4 4 4
9 9 9 9 9 9 8 8 8 8 7 7 7 6 6 6 6 6 5 4 5 5 5 5 5 5 4 4 4 4 4 3
10 9 9 9 8 8 8 8 8 7 7 7 7 6 5 5 5 5 5 4 4 4 4 4 4 4 4 4 4 3 3 3
9 9 9 9 8 7 7 7 7 7 6 6 5 5 5 5 4 4 3 4 3 3 4 3 4 4 4 3 3 3 3 3
9 9 9 8 7 7 7 7 7 6 6 5 5 5 5 4 4 2 2 3 4 3 3 3 3 3 3 3 3 3 2 3
8 8 8 8 8 7 7 7 6 6 6 5 4 4 4 4 4 3 2 3 2 2 1 2 2 2 2 2 2 2 2 2
8 8 8 8 7 7 6 7 6 5 5 5 4 4 4 3 3 3 3 3 3 2 0 0 1 2 1 1 2 1 1 1
7 7 7 8 7 7 7 6 5 5 5 4 4 3 3 3 3 3 3 2 2 2 1 0 -1 -0 0 1 1 -0 -0 0
6 6 7 7 7 6 6 5 5 4 4 3 3 2 2 3 3 3 3 2 2 2 1 2 -0 -1 -0 1 1 1 1 0
4 5 5 3 3 4 3 3 3 4 4 3 2 2 2 2 3 2 3 2 1 2 1 0 0 -0 -2 0 -0 1 1 1
1 1 2 1 2 3 3 4 3 2 2 2 2 2 1 1 3 1 2 1 0 1 -0 -0 -0 -1 -1 0 0 1 0 1
-1 -0 0 0 -0 0 1 2 0 2 1 2 2 1 1 1 1 2 1 1 2 -0 -0 0 -1 -1 -1 -1 -0 1 1 1
-1 -1 -1 -0 -1 -1 -1 -1 -1 -1 -2 -0 1 1 0 0 0 0 1 1 1 -0 -1 -1 -1 -0 -1 -1 -1 -1 1 1
-4 -2 -2 -1 -1 -2 -2 -2 -1 -2 1 -1 0 0 -2 -2 -2 -2 -1 -1 0 0 1 -1 -0 -1 -1 -1 -1 -1 -2 0

GFSFLT2_700_temp_222.txt.gz
Temp
11 11 11 11 10 10 10 10 10 9 9 8 8 7 7 7 7 7 7 7 7 7 7 7 7 7 7 7 7 6 6 6
11 11 11 11 10 10 10 10 10 9 9 9 8 7 7 7 7 7 6 6 6 6 6 6 6 7 7 7 6 6 6 6
10 10 10 10 10 10 10 10 10 10 9 9 8 8 8 7 6 7 6 6 6 6 6 6 6 6 6 6 6 6 6 6
10 10 10 10 10 10 10 10 9 9 9 9 9 8 8 8 7 6 6 6 6 6 5 5 5 6 6 6 6 6 5 5
10 10 10 10 9 9 9 9 9 9 9 9 9 8 8 8 8 7 6 6 6 6 5 5 5 6 6 6 6 5 5 5
11 10 10 10 9 9 9 9 9 9 9 9 9 8 8 8 8 7 6 6 6 5 5 5 5 5 5 5 5 5 5 5
10 10 10 9 9 9 9 9 9 8 8 9 9 8 8 8 7 6 6 6 5 5 5 4 4 4 4 4 5 4 5 4
10 10 10 10 10 9 9 9 9 9 8 8 8 8 7 7 6 6 5 5 4 4 4 4 3 3 2 1 3 4 4 4
10 10 10 10 9 9 9 9 9 9 8 8 8 7 7 6 6 5 5 5 4 4 4 3 2 2 1 1 2 2 3 3
10 9 9 9 9 9 9 9 9 9 8 8 7 6 6 6 6 5 5 4 4 4 3 2 2 2 2 1 1 1 1 2
9 9 9 9 9 9 9 9 9 9 8 7 6 5 6 6 6 5 5 5 4 4 3 3 2 2 2 1 2 0 -1 -0
8 8 8 8 8 8 8 8 8 8 8 7 6 5 5 5 5 5 5 5 4 4 4 3 3 2 1 1 0 -0 -0 -0
7 7 6 7 7 7 8 8 8 7 7 7 6 5 5 4 5 5 4 4 4 2 3 3 3 2 1 1 0 -0 -0 1
6 5 5 5 6 6 6 7 7 7 7 7 6 6 5 4 4 4 4 4 4 2 2 3 3 3 1 1 0 0 -0 -0
4 4 4 5 5 5 5 6 6 5 5 4 4 5 4 4 4 4 4 4 3 3 3 3 3 2 1 1 1 0 -0 -1
2 2 3 3 3 4 4 4 5 4 3 3 4 4 4 3 3 3 3 3 3 3 3 3 3 2 2 2 1 1 -0 -0
1 1 1 1 1 1 1 1 1 2 3 3 3 2 2 1 2 2 3 3 2 1 2 2 3 2 2 1 1 0 -0 -1
-0 0 0 -0 -1 -1 -1 -1 -1 0 1 2 1 2 2 1 1 2 1 1 1 1 1 1 3 2 1 2 1 0 0 1
-2 -2 -2 -3 -3 -3 -3 -2 -2 -2 -1 -0 1 0 -1 0 -0 1 -0 -0 0 -0 0 1 1 2 2 2 1 1 0 -0
-4 -3 -3 -2 -2 -3 -3 -2 -3 -2 -2 -2 -1 -2 -3 -2 -2 -2 -2 -1 -1 -1 -1 -1 0 -0 1 1 1 0 -1 0

GFSFLT2_700_temp_225.txt.gz
Temp
11 11 11 11 11 10 10 10 10 10 9 8 8 8 7 6 6 6 6 6 6 6 6 7 7 7 7 7 7 6 6 7
11 11 11 11 11 11 10 10 10 10 9 9 8 8 7 7 7 7 6 7 6 6 6 6 6 6 6 6 6 6 6 7
11 11 11 11 10 10 10 10 10 10 10 9 9 8 8 8 8 7 6 6 6 6 6 6 6 6 6 6 6 6 6 6
11 11 11 11 10 10 10 10 10 10 10 10 9 9 9 9 8 8 6 6 5 6 6 5 5 5 6 6 6 5 6 5
11 11 11 11 11 10 10 10 9 9 9 9 9 9 8 9 8 8 7 6 6 6 6 5 5 5 5 5 5 5 5 4
7 10 11 10 10 10 10 10 9 9 9 9 9 9 8 8 8 7 7 6 6 6 6 5 5 5 5 5 5 5 5 1
10 10 10 10 10 10 10 10 9 9 9 9 9 9 8 8 7 7 6 6 6 6 6 5 5 4 4 4 4 4 4 1
10 10 10 10 10 9 9 9 10 9 9 9 8 8 8 7 7 7 6 6 6 5 5 5 4 4 4 3 3 3 3 2
9 9 9 10 10 9 9 9 9 9 9 9 8 8 8 8 7 6 6 5 5 5 5 5 5 4 4 3 3 3 3 1
9 9 9 9 9 10 9 9 9 9 9 9 8 8 7 7 7 6 6 6 5 5 5 5 4 4 3 2 2 2 2 1
10 9 9 9 8 8 8 9 9 8 8 9 7 7 7 7 6 6 6 5 5 5 5 4 4 4 1 3 2 2 2 1
8 8 8 8 8 8 8 8 8 8 8 8 9 8 7 7 6 5 6 5 5 5 5 5 4 3 3 2 2 1 2 1
7 7 7 7 7 7 7 7 7 7 7 7 8 8 7 6 6 5 5 6 5 5 4 4 4 3 3 3 3 1 1 2
7 7 6 6 6 6 6 6 6 7 7 7 6 6 6 6 5 5 5 5 5 5 4 4 4 3 4 2 2 2 1 1
6 6 5 5 5 5 5 5 5 6 6 4 4 5 4 5 4 5 5 5 4 4 4 4 4 4 3 3 2 2 1 1
4 3 3 3 3 3 4 4 3 3 4 5 4 5 4 4 3 3 4 4 4 3 3 3 3 3 3 3 2 1 1 1
3 1 -0 -0 -0 1 2 2 2 2 2 2 3 3 3 4 3 2 3 2 2 1 3 2 3 2 2 2 2 2 1 1
0 1 0 1 -0 0 0 0 1 -0 -0 -1 -0 1 2 2 2 2 2 1 1 3 3 2 1 2 0 1 0 1 2 1
-1 -2 -2 -2 -2 -2 -3 -2 -2 -2 -2 -2 -2 -2 -1 0 0 0 0 1 1 1 1 -0 1 0 0 0 -0 1 1 1
-4 -4 -3 -3 -3 -3 -3 -3 -3 -3 -3 -3 -3 -2 -2 -2 -2 -2 -1 -0 -0 0 -1 -1 -0 -1 -0 0 -0 -0 0 0

GFSFLT2_700_temp_231.txt.gz
Temp
11 11 11 11 11 11 11 11 10 10 10 10 10 10 10 9 9 9 9 9 8 7 7 7 7 7 6 6 6 6 7 7
11 11 11 11 11 11 11 11 10 10 10 10 10 10 10 10 9 9 9 9 8 8 7 7 6 6 6 6 6 6 6 7
10 11 10 10 10 11 11 11 11 10 10 10 10 9 9 9 9 9 9 8 8 8 7 7 7 6 6 6 6 6 6 6
11 11 11 10 10 10 10 10 10 10 10 9 9 9 9 9 8 8 8 8 8 8 7 7 7 7 6 6 6 5 5 6
11 10 11 11 11 11 10 10 10 10 10 9 9 9 9 9 8 8 8 8 8 8 8 7 7 6 6 6 5 5 5 5
9 10 10 10 10 10 10 10 10 9 9 9 9 9 9 9 8 8 8 8 8 7 7 7 7 7 6 6 5 5 5 5
9 9 9 9 9 9 9 9 10 10 9 9 9 9 8 8 8 8 8 8 8 7 7 7 7 7 6 6 5 5 4 4
10 9 9 9 9 9 9 9 9 9 9 8 8 8 8 8 8 7 7 8 7 7 7 7 7 6 6 6 6 5 4 4
10 9 9 9 8 8 8 8 8 9 8 8 7 7 7 7 7 7 7 7 7 7 7 6 6 6 6 6 6 6 5 5
9 9 9 9 8 8 8 8 7 7 7 8 8 7 7 7 7 7 7 6 6 6 6 6 5 4 5 6 6 6 5 5
9 9 8 8 8 7 7 7 7 6 6 6 6 6 6 6 6 6 7 6 6 6 6 6 6 5 5 6 6 5 5 5
8 8 7 7 7 7 6 6 6 6 6 6 5 5 5 5 5 5 5 5 6 6 5 5 5 5 5 6 5 5 4 5
7 7 7 7 7 6 6 6 5 5 5 5 5 5 5 5 5 5 5 5 4 5 5 5 5 5 5 5 6 5 5 4
7 6 6 6 5 5 5 5 5 4 4 4 5 5 5 5 5 5 5 5 5 4 5 5 5 5 4 4 4 4 3 4
7 6 6 5 5 5 4 4 4 4 4 4 4 4 4 4 3 2 2 2 2 4 3 4 3 4 3 4 4 3 3 4
6 5 4 3 3 3 3 3 2 2 2 2 2 3 3 2 1 1 1 1 1 1 3 3 4 3 3 4 3 3 3 2
4 3 1 1 1 1 2 1 2 2 1 1 1 1 0 0 -0 -0 -1 -1 -1 -1 1 1 2 2 2 3 3 2 2 0
1 0 -0 -0 1 1 -0 -0 -1 -1 -2 -2 -2 -2 -2 -3 -2 -3 -4 -2 -2 -2 -1 -0 -0 1 2 2 1 2 1 1
0 0 1 1 -1 -2 -4 -4 -5 -5 -5 -5 -5 -5 -5 -5 -5 -6 -6 -4 -3 -4 -3 -2 -2 -2 -1 0 0 1 1 2
0 -1 -2 -3 -4 -7 -8 -6 -6 -6 -6 -5 -5 -6 -5 -5 -5 -6 -6 -6 -4 -4 -4 -4 -3 -3 -3 -3 -2 -1 -0 0

GFSFLT2_700_temp_237.txt.gz
Temp
11 11 11 11 10 10 10 10 10 10 10 10 9 9 9 9 9 8 8 8 8 8 7 7 7 6 6 6 7 7 7 7
11 11 11 10 10 10 10 10 10 10 9 9 9 9 9 9 9 9 9 8 8 8 7 7 7 6 6 6 6 6 7 7
11 11 10 10 10 10 9 9 9 9 9 9 8 8 8 8 8 8 8 8 8 8 8 7 6 6 6 6 6 6 6 6
10 10 10 10 10 9 9 9 9 9 9 8 8 8 8 8 8 8 8 8 8 8 8 8 7 7 6 5 5 5 5 6
10 9 9 9 9 9 8 8 8 8 8 8 8 8 8 8 8 8 8 7 8 8 8 7 7 7 6 5 5 5 5 5
9 9 9 9 8 8 8 8 8 8 8 8 8 8 8 8 8 7 8 7 7 7 7 7 7 7 7 6 6 5 5 5
9 9 8 9 9 8 8 8 8 8 7 7 8 8 8 7 7 7 7 7 7 7 7 7 7 7 7 7 6 5 5 5
9 9 9 9 9 8 8 8 7 7 7 7 6 6 7 7 7 7 7 7 7 7 7 7 6 6 7 6 6 6 5 5
9 9 9 8 8 8 7 7 7 7 5 6 5 5 6 6 6 6 6 6 6 6 6 6 6 6 6 6 6 5 5 5
9 9 8 8 7 7 7 7 6 6 6 6 5 6 7 6 6 6 6 6 6 6 6 6 6 6 6 6 6 6 6 5
9 8 8 8 7 7 7 7 6 6 6 6 6 6 6 6 6 6 6 6 7 7 7 6 6 6 6 6 6 6 5 5
8 8 8 7 7 6 6 6 6 5 5 5 5 5 5 5 5 5 5 5 5 6 6 6 5 5 5 4 6 6 6 5
8 8 7 7 6 6 5 5 5 4 5 5 5 4 4 4 4 4 4 5 4 4 5 5 5 4 4 3 4 5 6 6
7 7 6 6 6 5 5 5 5 5 6 6 5 5 5 5 5 5 4 4 3 3 3 3 3 3 3 2 1 3 3 5
6 6 6 5 5 5 5 5 5 6 5 6 6 6 6 6 5 5 5 5 4 3 2 2 2 2 1 0 1 2 2 3
5 5 5 4 4 5 5 5 5 5 6 5 5 5 5 5 5 5 4 3 3 2 2 1 0 1 -0 -0 -0 0 1 2
5 4 4 4 4 4 4 4 4 4 4 4 4 4 4 4 4 3 2 1 -0 -1 -1 -2 -3 -3 -4 -3 -2 -1 0 -2
4 4 3 3 3 3 3 3 3 3 3 3 4 3 3 2 1 1 -0 -1 -2 -2 -2 -3 -4 -5 -5 -5 -5 -4 -1 -4
3 3 2 2 2 2 2 2 2 2 2 3 3 1 -0 -1 -2 -2 -2 -2 -2 -2 -2 -3 -4 -5 -6 -5 -5 -5 -4 -4
3 2 1 1 1 1 1 1 1 0 0 -1 -2 -3 -2 -2 -2 -3 -3 -4 -4 -4 -4 -5 -5 -6 -6 -6 -6 -6 -5 -5

GFSFLT2_700_temp_243.txt.gz
Temp
11 11 11 11 10 10 10 9 9 9 9 9 8 8 8 8 8 7 7 7 7 7 7 7 7 7 7 7 7 7 7 7
11 11 11 11 10 10 10 10 9 9 9 9 8 8 8 8 8 7 7 7 7 7 7 7 6 6 6 7 7 6 6 6
11 10 10 10 10 10 10 9 9 9 9 9 9 9 9 9 8 8 8 7 7 6 6 6 6 6 6 6 7 6 6 6
10 10 10 10 10 9 9 9 9 9 8 8 8 8 8 8 8 8 8 8 7 7 7 6 6 6 6 6 6 6 6 6
10 10 10 9 9 9 9 8 8 8 8 8 8 8 8 8 8 8 8 8 7 7 7 7 7 7 6 6 6 6 6 6
10 9 9 9 8 8 8 8 8 8 8 8 8 8 7 7 7 8 8 8 7 7 7 7 7 7 7 6 7 6 6 6
9 9 9 9 9 9 8 8 8 8 8 8 7 7 7 8 7 8 8 7 8 8 7 7 7 7 6 7 7 6 6 6
9 9 9 9 9 8 8 8 8 7 7 7 7 7 7 7 7 7 7 7 7 7 7 7 7 7 7 7 7 7 6 6
9 9 9 9 9 8 8 8 8 8 7 7 6 7 7 7 7 7 7 7 7 7 7 7 7 7 7 6 6 6 7 6
8 8 8 8 8 8 8 8 8 8 7 7 6 6 6 6 6 6 6 6 6 7 7 6 6 6 7 7 7 6 6 6
8 8 7 7 7 7 7 7 7 6 6 6 6 6 6 5 6 6 6 6 6 6 6 6 6 6 6 6 6 6 6 6
7 7 6 6 6 6 6 6 5 5 5 5 5 5 5 5 5 6 6 6 6 5 5 5 5 5 5 5 5 5 5 5
6 5 5 5 5 5 4 4 5 4 4 4 4 4 5 5 6 6 6 6 6 6 5 5 5 5 5 5 5 4 4 4
4 4 3 4 3 3 2 2 3 3 3 3 3 4 4 5 5 6 6 6 6 6 6 5 5 4 4 4 4 4 4 3
3 2 2 2 1 1 1 2 2 2 2 3 3 4 4 4 5 5 5 5 5 5 5 5 5 4 4 3 3 3 3 3
2 1 1 1 1 1 0 0 -0 0 2 2 1 3 4 4 4 4 4 4 4 4 4 3 3 2 1 1 1 1 1 2
2 0 -1 -1 -0 -1 -0 -0 -0 0 0 -0 2 2 2 2 2 2 3 3 3 2 1 1 1 1 0 -0 -0 -1 -1 -0
1 -0 -1 -1 -1 -1 -1 -1 -1 -2 -1 -0 -0 0 0 1 1 1 2 1 1 0 -0 -0 -0 -0 -0 -0 -0 0 0 -0
-0 -1 -1 -1 -1 -3 -2 -2 -3 -2 -1 -1 -1 -1 -1 -1 -1 -0 -1 -1 -1 -1 -1 -1 -1 -0 -0 -1 -1 -1 -1 -1
-0 -1 -1 -2 -1 -3 -2 -2 -2 -2 -2 -2 -2 -2 -2 -2 -2 -2 -2 -2 -2 -2 -2 -1 -1 -1 -1 -1 -2 -2 -2 -3

GFSFLT2_700_temp_246.txt.gz
Temp
10 10 10 10 10 10 10 10 10 10 10 9 9 9 9 9 9 9 9 8 8 8 8 8 8 8 7 7 7 7 7 7
10 10 10 10 9 9 9 9 9 9 9 9 9 9 9 9 9 9 9 9 8 8 8 8 8 8 7 7 7 7 7 7
11 10 10 10 10 10 9 9 9 9 9 9 9 9 8 8 8 8 8 8 8 8 8 8 8 8 8 7 7 7 7 7
10 10 10 10 9 9 9 9 8 8 8 8 8 8 8 8 8 8 8 8 8 8 7 7 8 8 8 8 8 7 7 7
10 10 10 9 9 9 9 8 8 8 8 8 8 8 8 8 7 7 7 8 8 8 7 7 7 7 7 7 7 7 7 7
10 10 9 9 8 8 8 8 8 8 8 7 7 7 7 7 7 7 7 7 7 7 7 6 6 6 6 7 7 7 7 7
10 9 8 9 8 8 8 8 7 7 7 6 6 6 6 6 6 6 6 6 7 7 7 7 6 6 6 6 6 6 6 6
9 9 9 9 9 8 8 8 8 7 7 7 6 6 6 6 6 6 7 7 7 7 7 7 7 7 7 6 6 6 6 6
9 9 9 9 8 8 8 8 8 7 7 7 6 6 6 6 6 6 6 6 7 7 7 7 7 7 6 7 7 6 6 6
8 8 8 8 8 8 8 8 7 8 8 7 7 6 6 6 6 6 6 6 6 7 7 7 6 6 6 6 6 6 6 6
8 8 8 8 7 7 7 7 7 6 7 7 6 6 5 5 5 5 5 6 6 6 6 7 7 6 6 6 5 5 6 6
7 7 7 6 6 5 5 5 5 5 5 5 5 4 4 4 5 5 5 6 6 6 6 7 7 7 6 6 6 6 5 5
6 5 5 5 5 4 4 4 4 4 3 4 3 3 3 3 4 4 5 5 5 6 6 6 6 6 6 5 6 6 6 5
6 5 4 4 4 3 3 2 2 2 2 3 2 3 3 3 3 3 4 4 5 5 5 5 5 5 5 5 5 5 5 5
4 4 3 3 2 3 2 2 1 1 2 2 2 2 2 2 3 3 3 4 4 5 5 5 4 4 4 4 3 3 3 3
2 2 1 1 1 -0 -0 0 0 0 1 1 1 1 1 1 1 2 3 3 3 3 3 4 3 2 2 2 2 1 1 1
2 1 1 0 0 0 -0 -1 -1 -1 -1 -1 -1 -1 -2 -0 2 2 2 2 1 2 1 2 1 0 -0 0 -0 -0 -0 -0
2 -0 -0 -1 -1 -1 -2 -1 -1 -1 -1 -1 -2 -2 -2 -1 1 0 0 0 -0 -0 -1 -1 -1 -1 -1 -1 -1 -1 -1 -1
0 -1 -1 -1 -1 -1 -2 -2 -2 -2 -2 -3 -2 -2 -1 -1 -1 -1 -2 -2 -1 -1 -2 -2 -2 -2 -2 -1 -1 -1 -1 -1
-1 -2 -2 -2 -2 -2 -3 -2 -3 -3 -3 -3 -3 -2 -2 -1 -2 -2 -3 -3 -2 -3 -3 -3 -3 -3 -3 -2 -2 -2 -2 -2

GFSFLT2_700_temp_249.txt.gz
Temp
11 10 10 10 10 10 9 9 9 9 9 9 9 9 9 9 9 8 8 8 8 8 8 8 8 8 8 8 7 7 7 6
11 11 10 10 10 10 10 10 9 9 9 9 9 8 8 8 8 8 8 8 8 8 8 8 8 8 8 8 7 7 7 7
11 11 10 10 10 10 10 9 9 9 9 8 8 8 8 8 8 8 8 8 7 7 7 7 7 8 8 7 7 7 7 7
10 10 10 10 9 10 9 9 9 9 9 9 8 8 8 8 8 8 7 7 7 6 6 6 7 7 7 7 7 7 7 7
10 10 10 9 9 9 9 8 8 8 8 8 8 7 7 7 7 7 7 7 7 7 6 6 7 6 6 7 7 7 7 6
10 10 9 9 9 8 8 8 8 8 7 7 7 7 7 7 6 7 7 7 6 6 7 7 7 7 7 6 6 7 6 6
9 9 9 9 8 7 7 7 7 7 7 7 7 7 6 6 6 6 6 6 6 6 6 6 7 6 7 7 7 6 6 6
9 9 8 8 8 7 7 7 7 7 7 7 7 7 6 6 6 6 6 6 6 6 6 6 7 7 7 7 7 7 6 6
8 8 8 8 8 8 8 8 8 7 7 7 7 7 6 6 5 5 5 5 5 6 6 6 6 6 7 7 7 7 7 6
8 8 8 8 8 7 7 7 7 7 7 7 7 6 6 5 5 5 5 5 5 5 5 6 6 6 6 7 7 7 6 6
8 7 7 7 7 7 7 7 6 6 6 6 6 6 5 5 5 5 5 5 5 5 5 5 6 6 6 7 7 7 7 6
7 6 6 5 5 4 4 4 5 5 5 5 5 5 5 4 4 4 4 4 4 4 5 5 5 6 6 6 6 7 7 6
6 6 6 5 5 5 4 4 3 3 3 3 3 3 4 4 3 4 3 4 4 4 4 4 5 5 6 6 6 6 6 6
6 5 5 4 4 3 3 3 3 3 2 3 2 1 1 2 2 2 2 2 3 3 3 3 4 5 5 5 5 5 5 5
6 5 4 3 2 2 2 2 1 0 0 1 0 1 1 1 1 1 2 2 2 2 3 2 4 4 4 4 3 2 3 3
5 4 3 2 1 1 1 1 -0 -1 -1 -1 -1 -1 -0 -1 -1 -1 0 -0 0 2 2 3 3 3 2 2 2 1 1 1
4 4 3 0 -0 -0 0 0 -1 -2 -2 -2 -1 -1 -2 -1 -1 -1 -1 -1 -1 -1 1 1 1 1 1 0 0 0 -0 -0
3 3 1 -0 -1 -1 -1 -1 -2 -2 -2 -2 -2 -2 -2 -2 -2 -2 -1 -1 -1 0 0 -0 -1 -1 -1 -1 -1 -2 -2 -1
2 1 0 -1 -2 -2 -2 -2 -2 -2 -2 -3 -3 -3 -3 -3 -2 -2 -2 -1 -1 -1 -1 -1 -2 -2 -2 -2 -2 -2 -2 -2
1 1 -1 -1 -2 -2 -2 -3 -3 -3 -3 -4 -4 -3 -3 -3 -3 -3 -3 -2 -2 -3 -3 -3 -2 -2 -2 -3 -3 -3 -3 -3

GFSFLT2_700_temp_255.txt.gz
Temp
11 11 10 10 10 10 10 10 9 9 9 9 9 9 9 8 8 8 8 8 8 8 7 7 7 7 7 6 6 6 6 6
11 10 10 10 10 10 10 10 9 9 9 9 9 9 9 8 8 8 8 7 7 7 7 7 7 7 7 6 6 6 6 5
10 10 10 10 10 10 10 9 9 9 9 9 9 8 8 8 8 8 7 7 7 7 6 6 7 7 7 6 7 6 6 5
10 10 10 10 10 10 9 9 9 9 8 8 8 8 8 7 7 7 7 6 6 6 7 7 6 6 6 6 7 6 6 6
7 8 9 9 9 9 8 8 8 7 7 7 7 7 7 7 7 7 7 7 6 6 6 6 6 6 6 6 6 6 6 6
8 8 8 8 9 9 8 7 7 7 7 7 7 6 6 7 7 6 6 6 6 6 5 5 6 5 6 6 6 6 6 6
8 7 7 8 8 8 7 6 6 6 6 6 6 5 5 6 6 6 6 6 6 5 5 5 5 5 5 5 6 6 6 6
8 7 6 7 7 7 6 5 5 5 4 6 6 6 4 5 6 6 6 5 5 5 5 5 5 5 5 5 5 5 5 6
7 7 7 8 7 7 6 6 6 5 5 5 5 5 5 5 6 6 6 5 5 6 6 5 5 5 4 5 5 5 5 5
7 7 7 7 7 7 7 6 6 5 5 5 5 5 4 4 5 5 5 5 5 5 5 5 5 4 4 4 5 5 5 5
8 8 7 7 6 6 6 6 5 5 4 4 4 4 4 4 4 4 4 4 4 4 4 4 4 4 4 4 4 5 5 5
7 7 6 6 6 6 5 4 4 4 4 3 3 3 3 3 3 2 2 1 3 2 2 3 3 3 3 4 4 4 4 4
6 6 6 6 5 5 4 4 3 2 2 2 2 2 2 1 1 1 2 2 2 2 1 1 1 1 2 3 2 3 3 3
6 6 5 5 4 4 3 3 3 2 1 1 1 1 0 1 1 0 0 1 1 0 0 0 0 -0 0 2 2 2 2 2
6 6 5 4 3 3 3 2 1 0 0 -0 -0 -0 -0 -0 -1 -1 -1 -0 -0 -0 -0 -1 -1 -0 -1 -1 -1 0 1 1
6 5 5 4 3 3 2 2 1 -0 -1 -1 -2 -2 -2 -1 -1 -1 -1 -1 -1 -1 -1 -2 -2 -2 -3 -3 -3 -2 -1 0
5 4 3 3 2 2 1 1 0 -1 -2 -2 -2 -2 -2 -3 -2 -2 -1 -2 -3 -3 -3 -3 -3 -3 -3 -4 -4 -3 -2 -2
4 3 3 2 1 1 0 -1 -1 -2 -2 -3 -3 -3 -3 -3 -3 -3 -3 -3 -3 -4 -4 -4 -3 -3 -3 -3 -3 -3 -3 -3
2 2 2 2 0 -0 -1 -2 -2 -3 -3 -3 -3 -4 -4 -4 -4 -4 -4 -4 -4 -4 -4 -4 -4 -4 -4 -4 -4 -4 -4 -3
2 1 1 1 0 -1 0 -1 -2 -3 -4 -4 -4 -4 -3 -4 -4 -4 -4 -5 -5 -5 -5 -4 -4 -4 -4 -4 -4 -4 -5 -4

GFSFLT2_700_temp_261.txt.gz
Temp
9 8 8 8 7 8 8 8 8 8 8 8 8 8 8 8 8 8 7 7 7 7 7 7 6 6 5 5 6 6 6 6
8 8 7 7 7 7 7 8 7 7 7 7 7 7 6 7 7 6 7 7 7 7 7 7 6 6 6 6 5 5 6 6
8 8 8 6 6 6 6 6 6 6 6 6 6 6 6 6 6 6 6 6 5 6 6 6 6 6 5 5 6 5 5 6
8 7 6 6 6 6 5 4 5 5 5 5 5 6 6 6 5 5 5 5 5 5 5 5 5 4 4 5 5 5 5 6
8 8 7 7 6 5 5 5 4 5 5 4 4 5 6 6 6 5 4 5 4 4 4 4 4 4 4 3 4 4 5 5
8 8 7 7 6 6 6 5 4 6 5 5 4 6 6 6 6 6 4 4 4 4 4 3 2 3 3 4 3 4 5 5
8 7 6 6 6 6 5 4 4 5 5 5 5 5 5 5 5 3 2 3 3 3 3 3 3 4 3 3 3 4 5 5
7 7 6 6 5 5 5 5 5 5 5 5 5 4 4 4 4 3 4 4 3 3 3 3 3 4 4 4 4 5 5 4
6 6 6 5 5 6 6 6 6 5 5 4 4 3 3 3 3 3 3 3 3 3 3 3 2 3 3 4 4 4 4 4
6 6 6 6 6 6 6 5 5 5 4 4 3 2 2 2 2 2 2 2 2 1 2 2 2 2 3 2 3 3 3 3
6 6 6 6 6 6 5 5 5 4 4 4 3 3 2 2 1 1 1 1 1 1 1 2 2 2 3 3 2 2 2 2
5 5 5 5 5 4 4 4 4 4 4 3 3 2 1 1 1 1 1 0 0 0 1 1 1 2 2 2 2 2 2 1
4 5 5 4 4 4 4 4 3 3 2 2 2 1 0 0 0 -0 -0 -0 -0 0 0 0 0 1 1 1 0 1 1 1
4 4 4 4 4 3 3 3 2 1 1 0 -1 -1 -1 -1 -1 -1 -0 -0 -1 -1 -0 -0 -1 -1 -0 0 1 -0 -1 -1
3 4 3 3 3 2 2 2 1 1 -0 -1 -1 -1 -1 -1 -2 -2 -2 -2 -1 -1 -1 -1 -1 -2 -2 -2 -1 -0 0 -1
3 3 3 3 2 2 2 1 1 0 -1 -1 -1 -1 -1 -2 -2 -2 -2 -2 -2 -2 -2 -2 -1 -1 -2 -3 -3 -3 -2 1
3 2 2 2 2 2 1 1 -0 -1 -2 -2 -2 -2 -2 -2 -2 -2 -2 -2 -2 -2 -2 -2 -2 -2 -2 -2 -3 -4 -4 -4
2 2 2 1 1 0 0 0 -0 -1 -2 -2 -2 -2 -2 -2 -2 -2 -2 -3 -3 -3 -3 -3 -3 -3 -3 -3 -4 -4 -4 -4
2 1 1 1 1 -0 -0 -0 -1 -2 -2 -2 -2 -2 -2 -2 -2 -2 -2 -3 -3 -3 -4 -4 -4 -4 -4 -4 -4 -4 -5 -6
1 1 1 1 0 -1 -1 -1 -1 -1 -2 -2 -2 -3 -3 -3 -3 -3 -4 -4 -4 -5 -5 -5 -6 -6 -6 -6 -6 -6 -6 -6